THY2420 LTFM-LTAI

Flight info

Callsign THY2420
Flight time 0h 59m
Altitude 37000
Route RATVU1D/35L RATVU UT35 BABSA
Aircraft A320/M-SDE3FGHIRWY/LB1

Departure

Time 2026-05-07 14:36
Airport İstanbul Airport (LTFM)

Arrival

Time 2026-05-07 15:35
Airport Antalya International Airport (LTAI)
Time Latitude Longitude Altitude Speed Heading
2026-05-07 14:05 41.26337 28.73573 334 ft 0 kts 70°
2026-05-07 14:28 41.26334 28.73562 334 ft 4 kts 72°
2026-05-07 14:28 41.26328 28.73527 334 ft 4 kts 84°
2026-05-07 14:28 41.26328 28.73492 334 ft 4 kts 111°
2026-05-07 14:29 41.26340 28.73471 331 ft 1 kts 162°
2026-05-07 14:29 41.26345 28.73470 333 ft 0 kts 162°
2026-05-07 14:32 41.26343 28.73470 333 ft 1 kts 162°
2026-05-07 14:32 41.26325 28.73478 333 ft 4 kts 162°
2026-05-07 14:32 41.26292 28.73494 334 ft 6 kts 160°
2026-05-07 14:32 41.26245 28.73497 333 ft 8 kts 204°
2026-05-07 14:33 41.26221 28.73430 331 ft 9 kts 268°
2026-05-07 14:33 41.26220 28.73338 334 ft 11 kts 269°
2026-05-07 14:33 41.26219 28.73227 334 ft 13 kts 269°
2026-05-07 14:33 41.26217 28.73126 331 ft 11 kts 269°
2026-05-07 14:34 41.26216 28.73015 333 ft 13 kts 269°
2026-05-07 14:34 41.26214 28.72886 334 ft 15 kts 269°
2026-05-07 14:34 41.26213 28.72744 334 ft 14 kts 269°
2026-05-07 14:34 41.26211 28.72606 334 ft 14 kts 269°
2026-05-07 14:35 41.26241 28.72527 331 ft 11 kts 346°
2026-05-07 14:35 41.26282 28.72525 329 ft 0 kts 359°
2026-05-07 14:35 41.26283 28.72525 329 ft 0 kts 359°
2026-05-07 14:35 41.26337 28.72523 332 ft 33 kts 359°
2026-05-07 14:36 41.26800 28.72513 331 ft 98 kts 359°
2026-05-07 14:36 41.27658 28.72492 331 ft 146 kts 358°
2026-05-07 14:36 41.28736 28.72461 701 ft 154 kts
2026-05-07 14:36 41.29813 28.72475 1265 ft 157 kts 359°
2026-05-07 14:37 41.30929 28.72462 1741 ft 163 kts 358°
2026-05-07 14:37 41.33423 28.72451 2417 ft 201 kts 358°
2026-05-07 14:37 41.34906 28.72469 2684 ft 226 kts 358°
2026-05-07 14:38 41.36554 28.72399 3063 ft 248 kts 345°
2026-05-07 14:38 41.38042 28.71254 3661 ft 253 kts 307°
2026-05-07 14:38 41.38728 28.69117 4488 ft 257 kts 278°
2026-05-07 14:38 41.38790 28.66718 5183 ft 261 kts 266°
2026-05-07 14:39 41.38619 28.64307 6114 ft 263 kts 264°
2026-05-07 14:39 41.38418 28.61873 6973 ft 266 kts 265°
2026-05-07 14:39 41.38205 28.59405 7782 ft 270 kts 258°
2026-05-07 14:39 41.37392 28.57131 8564 ft 279 kts 232°
2026-05-07 14:40 41.35874 28.55549 9336 ft 288 kts 205°
2026-05-07 14:40 41.33884 28.55054 10087 ft 297 kts 181°
2026-05-07 14:40 41.31755 28.55082 10434 ft 317 kts 181°
2026-05-07 14:40 41.29458 28.55141 10601 ft 341 kts 179°
2026-05-07 14:41 41.27043 28.55589 10913 ft 359 kts 166°
2026-05-07 14:41 41.24680 28.56747 11514 ft 366 kts 154°
2026-05-07 14:41 41.22500 28.58546 12198 ft 371 kts 142°
2026-05-07 14:41 41.20580 28.60853 12891 ft 375 kts 136°
2026-05-07 14:42 41.18692 28.63261 13568 ft 378 kts 136°
2026-05-07 14:42 41.16790 28.65699 14214 ft 381 kts 136°
2026-05-07 14:42 41.14875 28.68154 14775 ft 385 kts 136°
2026-05-07 14:42 41.12978 28.70688 15335 ft 389 kts 130°
2026-05-07 14:43 41.11373 28.73588 15878 ft 392 kts 122°
2026-05-07 14:43 41.09885 28.76643 16436 ft 396 kts 122°
2026-05-07 14:43 41.08378 28.79723 17009 ft 400 kts 122°
2026-05-07 14:43 41.06851 28.82830 17577 ft 404 kts 122°
2026-05-07 14:44 41.05202 28.85874 18159 ft 409 kts 131°
2026-05-07 14:44 41.03131 28.88400 18675 ft 413 kts 144°
2026-05-07 14:44 41.00640 28.90315 19177 ft 417 kts 157°
2026-05-07 14:44 40.97872 28.91468 19670 ft 419 kts 171°
2026-05-07 14:45 40.94959 28.91793 20170 ft 421 kts 184°
2026-05-07 14:45 40.92030 28.91460 20665 ft 425 kts 188°
2026-05-07 14:45 40.89070 28.91075 21144 ft 429 kts 187°
2026-05-07 14:45 40.86072 28.90969 21592 ft 435 kts 179°
2026-05-07 14:46 40.83037 28.91210 22029 ft 439 kts 178°
2026-05-07 14:46 40.79964 28.91463 22461 ft 443 kts 178°
2026-05-07 14:46 40.76876 28.91721 22881 ft 447 kts 178°
2026-05-07 14:46 40.73757 28.91982 23298 ft 451 kts 178°
2026-05-07 14:47 40.70620 28.92242 23701 ft 454 kts 178°
2026-05-07 14:47 40.67451 28.92501 24048 ft 457 kts 179°
2026-05-07 14:47 40.64256 28.92757 24414 ft 460 kts 179°
2026-05-07 14:47 40.61094 28.93011 24766 ft 462 kts 179°
2026-05-07 14:48 40.57895 28.93504 25125 ft 466 kts 170°
2026-05-07 14:48 40.54763 28.94647 25471 ft 470 kts 161°
2026-05-07 14:48 40.51775 28.96446 25810 ft 474 kts 151°
2026-05-07 14:48 40.48978 28.98768 26107 ft 477 kts 147°
2026-05-07 14:49 40.46187 29.01161 26421 ft 480 kts 147°
2026-05-07 14:49 40.43379 29.03561 26771 ft 482 kts 147°
2026-05-07 14:49 40.40562 29.05963 27109 ft 485 kts 147°
2026-05-07 14:49 40.37719 29.08381 27434 ft 487 kts 147°
2026-05-07 14:50 40.34871 29.10802 27772 ft 489 kts 147°
2026-05-07 14:50 40.32003 29.13234 28107 ft 491 kts 148°
2026-05-07 14:50 40.29127 29.15668 28425 ft 494 kts 148°
2026-05-07 14:50 40.26245 29.18108 28874 ft 493 kts 148°
2026-05-07 14:51 40.23368 29.20540 29351 ft 492 kts 148°
2026-05-07 14:51 40.20494 29.22957 29822 ft 490 kts 149°
2026-05-07 14:51 40.17480 29.25042 30285 ft 488 kts 158°
2026-05-07 14:51 40.14317 29.26630 30631 ft 488 kts 162°
2026-05-07 14:52 40.11126 29.28143 30999 ft 488 kts 162°
2026-05-07 14:52 40.07936 29.29651 31424 ft 487 kts 162°
2026-05-07 14:52 40.04756 29.31154 31793 ft 487 kts 162°
2026-05-07 14:52 40.01571 29.32667 32169 ft 486 kts 162°
2026-05-07 14:53 39.98394 29.34177 32566 ft 486 kts 162°
2026-05-07 14:53 39.95222 29.35684 33015 ft 484 kts 162°
2026-05-07 14:53 39.92059 29.37183 33464 ft 483 kts 163°
2026-05-07 14:53 39.88911 29.38700 33905 ft 482 kts 161°
2026-05-07 14:54 39.85791 29.40324 34311 ft 482 kts 160°
2026-05-07 14:54 39.82750 29.42006 34677 ft 482 kts 159°
2026-05-07 14:54 39.79682 29.43758 35014 ft 481 kts 159°
2026-05-07 14:54 39.76624 29.45515 35356 ft 480 kts 159°
2026-05-07 14:55 39.73567 29.47253 35675 ft 479 kts 159°
2026-05-07 14:55 39.70507 29.48961 35999 ft 478 kts 159°
2026-05-07 14:55 39.67446 29.50639 36283 ft 478 kts 160°
2026-05-07 14:55 39.64378 29.52303 36604 ft 477 kts 160°
2026-05-07 14:56 39.61312 29.53923 36924 ft 475 kts 161°
2026-05-07 14:56 39.58227 29.55481 37103 ft 477 kts 162°
2026-05-07 14:56 39.51967 29.58528 37133 ft 483 kts 162°
2026-05-07 14:57 39.45659 29.61609 37134 ft 485 kts 162°
2026-05-07 14:57 39.39361 29.64748 37132 ft 485 kts 161°
2026-05-07 14:58 39.33065 29.67896 37139 ft 485 kts 162°
2026-05-07 14:58 39.26764 29.71025 37143 ft 485 kts 162°
2026-05-07 14:59 39.20449 29.74138 37144 ft 486 kts 162°
2026-05-07 14:59 39.14132 29.77258 37153 ft 486 kts 162°
2026-05-07 15:00 39.07812 29.80378 37159 ft 487 kts 162°
2026-05-07 15:00 39.02558 29.82964 37177 ft 487 kts 162°
2026-05-07 15:01 38.96220 29.86082 37153 ft 488 kts 162°
2026-05-07 15:01 38.89875 29.89191 37156 ft 489 kts 162°
2026-05-07 15:02 38.83512 29.92265 37160 ft 489 kts 162°
2026-05-07 15:02 38.77124 29.95283 37168 ft 489 kts 162°
2026-05-07 15:03 38.70736 29.98298 37016 ft 489 kts 162°
2026-05-07 15:03 38.67531 29.99813 36615 ft 490 kts 162°
2026-05-07 15:03 38.64338 30.01324 36176 ft 490 kts 162°
2026-05-07 15:04 38.61138 30.02836 35735 ft 491 kts 162°
2026-05-07 15:04 38.57934 30.04348 35282 ft 492 kts 162°
2026-05-07 15:04 38.54719 30.05866 34844 ft 493 kts 162°
2026-05-07 15:04 38.51500 30.07385 34400 ft 494 kts 162°
2026-05-07 15:05 38.48273 30.08906 33947 ft 495 kts 162°
2026-05-07 15:05 38.45033 30.10432 33459 ft 496 kts 162°
2026-05-07 15:05 38.41798 30.11958 33165 ft 497 kts 162°
2026-05-07 15:05 38.38557 30.13483 33141 ft 496 kts 162°
2026-05-07 15:06 38.35348 30.14988 32756 ft 487 kts 162°
2026-05-07 15:06 38.32249 30.16438 32183 ft 474 kts 162°
2026-05-07 15:06 38.29190 30.17858 31720 ft 460 kts 162°
2026-05-07 15:06 38.26220 30.19226 31197 ft 449 kts 162°
2026-05-07 15:07 38.23298 30.20560 30569 ft 443 kts 162°
2026-05-07 15:07 38.20414 30.21874 29870 ft 438 kts 162°
2026-05-07 15:07 38.17558 30.23175 29149 ft 433 kts 162°
2026-05-07 15:07 38.14736 30.24462 28474 ft 428 kts 162°
2026-05-07 15:08 38.11949 30.25738 27818 ft 424 kts 162°
2026-05-07 15:08 38.09193 30.27002 27161 ft 419 kts 162°
2026-05-07 15:08 38.06466 30.28253 26500 ft 414 kts 161°
2026-05-07 15:08 38.03766 30.29491 25858 ft 413 kts 161°
2026-05-07 15:09 38.01165 30.31044 25436 ft 413 kts 148°
2026-05-07 15:09 37.98851 30.33183 25055 ft 411 kts 141°
2026-05-07 15:09 37.96605 30.35414 24734 ft 407 kts 141°
2026-05-07 15:09 37.94393 30.37613 24516 ft 403 kts 141°
2026-05-07 15:10 37.92186 30.39803 24307 ft 401 kts 141°
2026-05-07 15:10 37.89972 30.41961 24098 ft 401 kts 146°
2026-05-07 15:10 37.87541 30.43557 23894 ft 398 kts 162°
2026-05-07 15:10 37.84857 30.44298 23677 ft 393 kts 179°
2026-05-07 15:11 37.82154 30.44132 23462 ft 386 kts 195°
2026-05-07 15:11 37.79634 30.43122 23226 ft 377 kts 211°
2026-05-07 15:11 37.77419 30.41441 22862 ft 369 kts 220°
2026-05-07 15:11 37.75295 30.39620 22345 ft 369 kts 219°
2026-05-07 15:12 37.73164 30.37796 21826 ft 370 kts 219°
2026-05-07 15:12 37.71029 30.35974 21316 ft 371 kts 218°
2026-05-07 15:12 37.68899 30.34162 20841 ft 366 kts 218°
2026-05-07 15:12 37.66803 30.32382 20373 ft 360 kts 218°
2026-05-07 15:13 37.64737 30.30632 19909 ft 356 kts 217°
2026-05-07 15:13 37.62592 30.29093 19453 ft 354 kts 210°
2026-05-07 15:13 37.60317 30.27912 19003 ft 353 kts 201°
2026-05-07 15:13 37.57945 30.27114 18565 ft 352 kts 194°
2026-05-07 15:14 37.55525 30.26693 18070 ft 350 kts 188°
2026-05-07 15:14 37.53115 30.26376 17566 ft 346 kts 188°
2026-05-07 15:14 37.50739 30.26054 17155 ft 340 kts 189°
2026-05-07 15:14 37.48404 30.25732 16799 ft 336 kts 189°
2026-05-07 15:15 37.46085 30.25408 16441 ft 334 kts 189°
2026-05-07 15:15 37.43808 30.25088 16091 ft 333 kts 189°
2026-05-07 15:15 37.41481 30.24763 15749 ft 332 kts 188°
2026-05-07 15:15 37.39220 30.24450 15404 ft 330 kts 188°
2026-05-07 15:16 37.36941 30.24134 15069 ft 329 kts 188°
2026-05-07 15:16 37.34672 30.23820 14737 ft 327 kts 188°
2026-05-07 15:16 37.32414 30.23511 14400 ft 326 kts 188°
2026-05-07 15:16 37.30181 30.23208 14067 ft 318 kts 188°
2026-05-07 15:17 37.28015 30.22913 13707 ft 308 kts 188°
2026-05-07 15:17 37.25918 30.22624 13342 ft 299 kts 187°
2026-05-07 15:17 37.23864 30.22342 12972 ft 295 kts 188°
2026-05-07 15:17 37.21835 30.22062 12608 ft 291 kts 187°
2026-05-07 15:18 37.19831 30.21786 12255 ft 288 kts 187°
2026-05-07 15:18 37.17850 30.21519 11903 ft 284 kts 186°
2026-05-07 15:18 37.15892 30.21641 11553 ft 281 kts 168°
2026-05-07 15:18 37.14066 30.22462 11211 ft 277 kts 150°
2026-05-07 15:19 37.12527 30.23892 10873 ft 275 kts 133°
2026-05-07 15:19 37.11399 30.25771 10537 ft 274 kts 116°
2026-05-07 15:19 37.10724 30.27983 10208 ft 272 kts 99°
2026-05-07 15:19 37.10489 30.30323 9845 ft 272 kts 93°
2026-05-07 15:20 37.10302 30.32672 9470 ft 268 kts 93°
2026-05-07 15:20 37.10111 30.34956 9107 ft 260 kts 94°
2026-05-07 15:20 37.09920 30.37193 8746 ft 257 kts 94°
2026-05-07 15:20 37.09731 30.39412 8396 ft 255 kts 93°
2026-05-07 15:21 37.09544 30.41615 8037 ft 253 kts 94°
2026-05-07 15:21 37.09360 30.43801 7688 ft 251 kts 94°
2026-05-07 15:21 37.09178 30.45971 7345 ft 251 kts 93°
2026-05-07 15:21 37.08998 30.48150 7060 ft 250 kts 93°
2026-05-07 15:22 37.08818 30.50306 7019 ft 249 kts 94°
2026-05-07 15:22 37.08615 30.52464 7015 ft 250 kts 95°
2026-05-07 15:22 37.08402 30.54623 7013 ft 250 kts 95°
2026-05-07 15:22 37.08186 30.56798 7012 ft 251 kts 94°
2026-05-07 15:23 37.08018 30.58965 7015 ft 249 kts 85°
2026-05-07 15:23 37.08350 30.61058 7015 ft 244 kts 64°
2026-05-07 15:23 37.09231 30.62838 7012 ft 240 kts 44°
2026-05-07 15:23 37.10526 30.64119 7012 ft 237 kts 25°
2026-05-07 15:24 37.12071 30.64778 7014 ft 235 kts
2026-05-07 15:24 37.13685 30.64991 7019 ft 235 kts
2026-05-07 15:24 37.15326 30.65207 7019 ft 235 kts
2026-05-07 15:24 37.16956 30.65433 7020 ft 235 kts
2026-05-07 15:25 37.18581 30.65673 7020 ft 235 kts
2026-05-07 15:25 37.20151 30.66250 7020 ft 237 kts 22°
2026-05-07 15:25 37.21579 30.67289 7028 ft 239 kts 34°
2026-05-07 15:25 37.22928 30.68515 7030 ft 239 kts 33°
2026-05-07 15:26 37.24216 30.69820 7033 ft 240 kts 44°
2026-05-07 15:26 37.25225 30.71495 7032 ft 242 kts 59°
2026-05-07 15:26 37.25930 30.73396 6898 ft 246 kts 64°
2026-05-07 15:26 37.26632 30.75372 6500 ft 249 kts 63°
2026-05-07 15:27 37.27335 30.77341 6055 ft 244 kts 63°
2026-05-07 15:27 37.27832 30.79334 5758 ft 236 kts 83°
2026-05-07 15:27 37.27741 30.81338 5737 ft 226 kts 100°
2026-05-07 15:27 37.27127 30.83143 5695 ft 229 kts 131°
2026-05-07 15:28 37.25752 30.84097 5644 ft 229 kts 172°
2026-05-07 15:28 37.24165 30.84076 5582 ft 228 kts 188°
2026-05-07 15:28 37.22582 30.83779 5483 ft 231 kts 191°
2026-05-07 15:28 37.20992 30.83485 5203 ft 230 kts 188°
2026-05-07 15:29 37.19412 30.83269 4958 ft 227 kts 186°
2026-05-07 15:29 37.17841 30.83115 4715 ft 225 kts 186°
2026-05-07 15:29 37.16294 30.82894 4486 ft 221 kts 187°
2026-05-07 15:29 37.14778 30.82674 4276 ft 216 kts 186°
2026-05-07 15:30 37.13321 30.82470 4077 ft 204 kts 186°
2026-05-07 15:30 37.11945 30.82280 3945 ft 196 kts 186°
2026-05-07 15:30 37.10617 30.82097 3755 ft 193 kts 186°
2026-05-07 15:30 37.09307 30.81917 3580 ft 184 kts 186°
2026-05-07 15:31 37.08070 30.81746 3377 ft 175 kts 185°
2026-05-07 15:31 37.06874 30.81581 3163 ft 172 kts 186°
2026-05-07 15:31 37.05694 30.81419 2938 ft 169 kts 186°
2026-05-07 15:31 37.04529 30.81259 2723 ft 167 kts 185°
2026-05-07 15:32 37.03377 30.81100 2501 ft 164 kts 185°
2026-05-07 15:32 37.02272 30.80948 2287 ft 155 kts 185°
2026-05-07 15:32 37.01229 30.80804 2084 ft 148 kts 185°
2026-05-07 15:32 37.00221 30.80666 1890 ft 143 kts 186°
2026-05-07 15:33 36.99245 30.80532 1721 ft 141 kts 185°
2026-05-07 15:33 36.98285 30.80400 1536 ft 137 kts 185°
2026-05-07 15:33 36.97341 30.80270 1353 ft 135 kts 185°
2026-05-07 15:33 36.96414 30.80143 1173 ft 134 kts 185°
2026-05-07 15:34 36.95479 30.80015 991 ft 136 kts 185°
2026-05-07 15:34 36.94525 30.79884 811 ft 139 kts 184°
2026-05-07 15:34 36.93561 30.79752 635 ft 140 kts 183°
2026-05-07 15:34 36.92599 30.79617 451 ft 138 kts 182°
2026-05-07 15:35 36.91636 30.79488 256 ft 139 kts 183°
2026-05-07 15:35 36.90722 30.79365 179 ft 112 kts 186°
2026-05-07 15:35 36.90115 30.79278 179 ft 63 kts 186°
2026-05-07 15:35 36.89821 30.79238 179 ft 28 kts 186°
2026-05-07 15:36 36.89653 30.79225 179 ft 22 kts 173°
2026-05-07 15:36 36.89541 30.79260 178 ft 11 kts 161°
2026-05-07 15:36 36.89484 30.79287 178 ft 1 kts 156°
2026-05-07 15:36 36.89484 30.79288 178 ft 0 kts 156°
2026-05-07 15:37 36.89474 30.79293 178 ft 3 kts 156°
2026-05-07 15:37 36.89441 30.79311 178 ft 7 kts 156°
2026-05-07 15:37 36.89400 30.79358 177 ft 10 kts 86°
2026-05-07 15:38 36.89458 30.79408 177 ft 12 kts
2026-05-07 15:38 36.89552 30.79421 177 ft 15 kts
2026-05-07 15:38 36.89666 30.79437 176 ft 17 kts
2026-05-07 15:38 36.89782 30.79453 176 ft 15 kts
2026-05-07 15:39 36.89898 30.79468 176 ft 18 kts
2026-05-07 15:39 36.90019 30.79485 176 ft 18 kts
2026-05-07 15:39 36.90155 30.79504 176 ft 13 kts
2026-05-07 15:39 36.90256 30.79518 176 ft 16 kts
2026-05-07 15:40 36.90375 30.79535 176 ft 19 kts
2026-05-07 15:40 36.90504 30.79552 176 ft 18 kts
2026-05-07 15:40 36.90634 30.79569 176 ft 18 kts
2026-05-07 15:40 36.90745 30.79584 176 ft 14 kts
2026-05-07 15:41 36.90851 30.79599 176 ft 17 kts
2026-05-07 15:41 36.90972 30.79615 176 ft 15 kts
2026-05-07 15:41 36.91087 30.79632 176 ft 18 kts
2026-05-07 15:41 36.91186 30.79648 176 ft 11 kts 17°
2026-05-07 15:42 36.91205 30.79719 175 ft 10 kts 97°
2026-05-07 15:42 36.91201 30.79815 175 ft 11 kts 96°
2026-05-07 15:42 36.91242 30.79881 175 ft 13 kts
2026-05-07 15:42 36.91303 30.79910 175 ft 7 kts 90°
2026-05-07 15:43 36.91300 30.79988 175 ft 10 kts 95°
2026-05-07 15:43 36.91293 30.80050 175 ft 5 kts 96°
2026-05-07 15:43 36.91292 30.80064 175 ft 0 kts 97°